Weather in Naju

South Korea     35°01′46″N   126°43′13″E
temp.,
°C
wind,
m/s
gust,
m/s
humid.,
%
clouds,
%
prec.,
mm/h
press.,
hPa
HPBL,
m
19 september, sun
sun1900:00+19sse22880 0.0 101614
03:00+18ese119039 0.0 101611
06:00+18ene11921 0.0 101611
09:00+22ene11740 0.0 1017359
12:00+27nnw01598 0.0 10161291
15:00+28wsw115123 0.0 10141631
18:00+23wsw237845 0.1 101578
21:00+20sse11851 0.1 101613
20 september, mon
mon2000:00+19se11870 0.0 101512
03:00+17ese11930 0.0 101417
06:00+17ese24940 0.0 1014107
09:00+22ese6107343 0.0 1014925
12:00+25se68658 0.0 10121121
15:00+26se786737 0.0 10111193
18:00+23se611830 0.0 1010663
21:00+21se411880 0.0 1010446
21 september, tue
tue2100:00+22se4118781 0.0 1010411
03:00+22se61391100 0.8 1007564
06:00+22w589899 51.9 1007462
09:00+21sw1199100 62.3 100868
12:00+25w2374100 0.1 1007970
15:00+26w43654 0.3 10061227
18:00+22wsw24850 0.0 1007130
21:00+19s22940 0.0 100831
22 september, wed
wed2200:00+18sse11930 0.0 100912
03:00+18sse22930 0.0 100819
06:00+18s23968 1.5 100862
09:00+22sw49865 10.8 1009568
12:00+25wnw577853 4.6 1009979
15:00+24wnw59610 4.7 10091303
18:00+21wnw48790 0.0 1011283
21:00+18wnw238797 0.0 101270
23 september, thu
thu2300:00+17wsw11881 0.0 101311
03:00+17wsw229145 0.0 101334
06:00+17w268867 0.1 1014129
09:00+22wnw577372 0.2 10151083
12:00+23wnw6866100 0.1 10151418
15:00+23nw5665100 0.1 10151253
18:00+20nw478272 0.0 1017279
21:00+18n118898 0.0 101811